Regional Weather Roundup
Issued by NWS

Home | Current Version | Previous Version | Graphics & Text | Print | Product List | Glossary On
Versions: 1 2 3 4 5 6 7 8 9 10 11 12 13 14 15 16 17 18 19 20 21 22 23 24 25 26 27 28 29 30 31 32 33 34 35 36 37 38 39 40 41 42 43 44 45 46 47 48 49 50
556
ASUS43 KDMX 271808
RWRIA

WEATHER ROUNDUP FOR IOWA
NATIONAL WEATHER SERVICE DES MOINES IA
100 PM CDT SAT AUG 27 2016

NOTE: "FAIR" INDICATES FEW OR NO CLOUDS BELOW 12,000 FEET WITH NO
SIGNIFICANT WEATHER AND/OR OBSTRUCTIONS TO VISIBILITY.

* - THESE STATIONS ARE NOT NWS STATIONS...THUS NOT UNDER NWS
QUALITY CONTROL.  THEY ALSO DO NOT REPORT WEATHER SUCH
AS PRECIPITATION OR FOG.

IAZ001>003-012>014-020>022-031>034-043>046-271900-
   NORTHWEST IOWA

CITY           SKY/WX    TMP DP  RH WIND       PRES   REMARKS
CARROLL *      CLOUDY    72  66  83 S5        30.02S
CHEROKEE *     CLOUDY    70  66  88 W6        30.01S
DENISON *      CLOUDY    72  66  83 W6        30.01R
LE MARS *      CLOUDY    70  63  78 VRB5      30.02S
ORANGE CITY *  PTSUNNY   68  64  88 SW8       30.02F
SHELDON *      CLOUDY    68  64  88 VRB5      30.00F
SIOUX CITY     CLOUDY    73  65  75 S5        30.01S
6HR MIN TEMP:  64; 6HR MAX TEMP:  74; 6HR PCP: TRACE;

SPENCER        CLOUDY    67  63  87 SW8       30.02F
6HR MIN TEMP:  60; 6HR MAX TEMP:  68; 6HR PCP:  0.01;

STORM LAKE *   CLOUDY    70  66  88 SW6       30.03F
$$

IAZ055>058-069>071-079>083-090>094-271900-
   SOUTHWEST IOWA

CITY           SKY/WX    TMP DP  RH WIND       PRES   REMARKS
ATLANTIC *     CLOUDY    72  68  88 CALM      30.02F
AUDUBON *      CLOUDY    70  66  88 S3        30.04S
CLARINDA *       N/A     77  70  78 MISG      30.05S
COUNCIL BLFS * SUNNY     77  66  69 VRB5      30.02S
CRESTON *      CLOUDY    75  68  78 SW6       30.05S
HARLAN  *      CLOUDY    72  68  88 S6        30.06R FOG
LAMONI         PTSUNNY   77  69  76 S7        30.03S
6HR MIN TEMP:  67; 6HR MAX TEMP:  77; 6HR PCP: TRACE;

RED OAK *      CLOUDY    75  68  78 CALM      30.03S
SHENANDOAH *   CLOUDY    77 -33   1 CALM      30.03S
$$

IAZ047>049-059>061-072>074-084-271900-
   CENTRAL IOWA

CITY           SKY/WX    TMP DP  RH WIND       PRES   REMARKS
AMES           CLOUDY    72  68  87 SW6       30.02S
6HR MIN TEMP:  62; 6HR MAX TEMP:  72;

ANKENY *         N/A    N/A N/A N/A MISG        N/A
BOONE *        CLOUDY    72  66  83 VRB5      30.02S
CHARITON *       N/A     77  70  78 MISG      30.02F
DES MOINES     PTSUNNY   74  67  78 SW3       30.01F
6HR MIN TEMP:  64; 6HR MAX TEMP:  75; 6HR PCP: TRACE;

GRINNELL*      CLOUDY    71  66  85 S7        30.04R
KNOXVILLE *    PTSUNNY   75  68  78 CALM      30.01F
MARSHALLTOWN   CLOUDY    71  68  90 SW5       30.01F
6HR MIN TEMP:  63; 6HR MAX TEMP:  71;

NEWTON *       CLOUDY    72  70  94 SW6       30.02S
PERRY *        CLOUDY    72  69  90 SW5       30.03S
$$

IAZ004>006-015-016-023>025-035-036-271900-
   NORTH CENTRAL IOWA

CITY           SKY/WX    TMP DP  RH WIND       PRES   REMARKS
ALGONA *       CLOUDY    70  64  83 SW7       30.02S
ESTHERVILLE    CLOUDY    67  64  90 SW9       30.01S
6HR MIN TEMP:  59; 6HR MAX TEMP:  67;

FORT DODGE *   CLOUDY    73  66  78 W8        30.03S
MASON CITY     CLOUDY    69  65  86 SW9       30.03F
6HR MIN TEMP:  61; 6HR MAX TEMP:  69; 6HR PCP:  0.01;

FOREST CITY *    N/A    N/A N/A N/A MISG        N/A
WEBSTER CITY * PTSUNNY   72  66  83 SW7       30.00F
IOWA FALLS *   CLOUDY    71  66  84 SW5       30.03F
$$

IAZ007>011-017>019-026>030-037>042-050>054-066-271900-
   NORTHEAST IOWA

CITY           SKY/WX    TMP DP  RH WIND       PRES   REMARKS
CEDAR RAPIDS   CLOUDY    74  69  85 SW6       30.01S
6HR MIN TEMP:  65; 6HR MAX TEMP:  76; 6HR PCP: TRACE;

CHARLES CITY * CLOUDY    70  68  94 CALM      30.02F
CLINTON *      PTSUNNY   80  71  74 SW13      30.03R HX  84
DECORAH *      CLOUDY    66  66 100 SE6       30.01F
DUBUQUE        CLOUDY    72  68  87 W8        30.03S
6HR MIN TEMP:  63; 6HR MAX TEMP:  72; 6HR PCP:  0.03;

MONTICELLO *   CLOUDY    75  70  83 W7        30.02S
OELWEIN *      CLOUDY    70  68  94 SW6       30.02S
WATERLOO       CLOUDY    71  65  81 SW6       30.00F
6HR MIN TEMP:  63; 6HR MAX TEMP:  71;

$$

IAZ064-065-067-068-078-271900-
   EAST CENTRAL IOWA

CITY           SKY/WX    TMP DP  RH WIND       PRES   REMARKS
DAVENPORT      MOSUNNY   80  69  69 SW14      30.03R HX  83
6HR MIN TEMP:  70; 6HR MAX TEMP:  79;

IOWA CITY      PTSUNNY   76  67  73 SW6       30.03F
6HR MIN TEMP:  69; 6HR MAX TEMP:  77; 6HR PCP:  0.01;

MT. PLEASANT * SUNNY     82  70  68 W9        30.02F HX  85
MUSCATINE *    PTSUNNY   81  70  69 W10       30.02S HX  84
QUAD CITIES    MOSUNNY   82  70  66 SW12      30.01S HX  86
6HR MIN TEMP:  70; 6HR MAX TEMP:  82;

$$

IAZ062-063-075>077-085>089-095>099-271900-
   SOUTHEAST IOWA

CITY           SKY/WX    TMP DP  RH WIND       PRES   REMARKS
BURLINGTON     CLOUDY    81  72  74 W10       30.03R HX  85
6HR MIN TEMP:  70; 6HR MAX TEMP:  82;

FAIRFIELD *    MOSUNNY   79  68  69 VRB5      30.03S HX  81
FORT MADISON *   N/A     82  72  69 W9        30.04S HX  87
KEOKUK *       PTSUNNY   82  72  69 W12       30.02F HX  87
OSKALOOSA *      N/A     76  70  79 SW3       30.02F
CENTERVILLE *  PTSUNNY   79  72  78 S6        30.05R HX  82
OTTUMWA        PTSUNNY   79  68  69 CALM      30.02S HX  81
6HR MIN TEMP:  68; 6HR MAX TEMP:  79;

WASHINGTON *   PTSUNNY   77  72  83 SW7G13    30.04S
$$

ABBREVIATIONS USED IN REMARKS
   TC - TEMPERATURES IN CELSIUS
  WCI - WIND CHILL INDEX
   HX - HEAT INDEX
  VSB - VISIBILITY
$$





USA.gov is the U.S. government's official web portal to all federal, state and local government web resources and services.